This is the latest recevied weather packets stored in our database for station/object KR4CWL-13. If no packets are shown the sender has not sent any weather packets the latest 10 day(s).
| Time | Temp. | Humidity | Pressure | Rain* | Wind** | Luminosity | Snow |
|---|---|---|---|---|---|---|---|
| 1777505025 | 22.78° C | 84% | 999.7 hPa | 0 mm | - | - | - |
| 1777504425 | 23.33° C | 83% | 999.7 hPa | 0 mm | - | - | - |
| 1777503825 | 23.33° C | 83% | 999.7 hPa | 0 mm | - | - | - |
| 1777503225 | 23.89° C | 80% | 999.7 hPa | 0 mm | - | - | - |
| 1777502625 | 23.89° C | 79% | 999.7 hPa | 0 mm | - | - | - |
| 1777502025 | 23.89° C | 73% | 999.7 hPa | 0 mm | - | - | - |
| 1777501425 | 24.44° C | 73% | 999.7 hPa | 0 mm | - | - | - |
| 1777500825 | 24.44° C | 73% | 999.7 hPa | 0 mm | - | - | - |
| 1777500225 | 24.44° C | 71% | 1000 hPa | 0 mm | - | - | - |
| 1777499625 | 24.44° C | 69% | 1000 hPa | 0 mm | - | - | - |
| 1777499025 | 24.44° C | 69% | 1000.3 hPa | 0 mm | - | - | - |
| 1777498425 | 24.44° C | 69% | 1000.3 hPa | 0 mm | - | - | - |
| 1777497825 | 24.44° C | 70% | 1000.3 hPa | 0 mm | - | - | - |
| 1777497225 | 24.44° C | 69% | 1000.3 hPa | 0 mm | - | - | - |
| 1777496625 | 24.44° C | 70% | 1000.3 hPa | 0 mm | - | - | - |
| 1777496025 | 24.44° C | 70% | 1000.7 hPa | 0 mm | - | - | - |
| 1777495425 | 24.44° C | 71% | 1001 hPa | 0 mm | - | - | - |
| 1777494825 | 24.44° C | 70% | 1000.7 hPa | 0 mm | - | - | - |
| 1777494225 | 23.89° C | 71% | 1001 hPa | 0 mm | - | - | - |
| 1777493625 | 23.89° C | 71% | 1001.4 hPa | 0 mm | - | - | - |
| 1777493025 | 23.89° C | 71% | 1001.4 hPa | 0 mm | - | - | - |
| 1777492425 | 23.89° C | 73% | 1001.4 hPa | 0 mm | - | - | - |
| 1777491825 | 23.89° C | 72% | 1002 hPa | 0 mm | - | - | - |
| 1777491225 | 23.89° C | 74% | 1002 hPa | 0 mm | - | - | - |
| 1777490625 | 23.89° C | 73% | 1002.4 hPa | 0 mm | - | - | - |
* Rain since midnight (hover to see other rain measurements)
** Current wind speed in m/s (hover to see current wind gust speed)